Regional Weather Roundup
Issued by NWS

Home | Current Version | Previous Version | Text Only | Print | Product List | Glossary On
Versions: 1 2 3 4 5 6 7 8 9 10 11 12 13 14 15 16 17 18 19 20 21 22 23 24 25 26 27 28 29 30 31 32 33 34 35 36 37 38 39 40 41 42 43 44 45 46 47 48 49 50
000
ASUS43 KLSX 011907
RWRMO

WEATHER SUMMARY FOR MISSOURI
NATIONAL WEATHER SERVICE SPRINGFIELD MO
200 PM CDT WED JUL 01 2015

NOTE: "FAIR" INDICATES FEW OR NO CLOUDS BELOW 12,000 FEET WITH NO
       SIGNIFICANT WEATHER AND/OR OBSTRUCTIONS TO VISIBILITY.
       CURRENT SKY AND/OR WEATHER CONDITIONS ARE NOT AVAILABLE FOR
       CHILLICOTHE AND FARMINGTON.

MOZ001>031-035>038-043-044-053-054-012000-
...NORTHERN AND WESTERN MISSOURI...

CITY           SKY/WX    TMP DP  RH WIND       PRES   REMARKS
KANSAS CTY INT CLOUDY    80  74  81 E9        29.84F
KANSAS C DTWN  PTSUNNY   84  72  67 S12       29.83F
LEE`S SUMMIT   MOSUNNY   81  71  71 S12       29.86S
ST JOSEPH      PTSUNNY   81  71  71 SE9       29.84S
CHILLICOTHE      N/A     80  71  74 E6        29.87F
KIRKSVILLE     LGT RAIN  78  70  76 S5        29.90F

$$
MOZ066>068-077>081-088>096-101>105-012000-
...SOUTHWEST MISSOURI...

CITY           SKY/WX    TMP DP  RH WIND       PRES   REMARKS
SPRINGFIELD    LGT RAIN  74  68  81 S12       29.95F
JOPLIN         CLOUDY    85  74  69 S10       29.89F HX  92

$$
MOZ032>034-039>042-045>050-055>058-069>072-012000-
...CENTRAL MISSOURI...

CITY           SKY/WX    TMP DP  RH WIND       PRES   REMARKS
COLUMBIA       PTSUNNY   77  69  76 W3        29.90S
JEFFERSON CITY CLOUDY    78  68  71 NE3       29.87F
ROLLA          CLOUDY    74  68  81 SW9       29.90F
SEDALIA        PTSUNNY   78  71  79 CALM      29.89S
WHITEMAN AFB   PTSUNNY   76  76 100 S7        29.86F
WARRENSBURG    MOSUNNY   79  72  78 S7        29.86S
OSAGE BEACH    CLOUDY    73  70  88 S9        29.89F

$$
MOZ051-052-059>065-012000-
...EAST CENTRAL MISSOURI...

CITY           SKY/WX    TMP DP  RH WIND       PRES   REMARKS
ST LOUIS INTL  PTSUNNY   86  69  56 W9        29.89F HX  90
SPIRIT OF STL  MOSUNNY   82  72  69 W7        29.87F
ST CHARLES     MOSUNNY   82  72  71 NW8       29.87F

$$
MOZ072>076-082>087-097>100-106>115-012000-
...SOUTH CENTRAL AND SOUTHEAST MISSOURI...

CITY           SKY/WX    TMP DP  RH WIND       PRES   REMARKS
CAPE GIRARDEAU CLOUDY    77  68  73 SW6       29.86F
FARMINGTON     PTSUNNY   79  66  65 W6        29.93F
WEST PLAINS    CLOUDY    72  67  84 SW10      29.98S

$$


USA.gov is the U.S. government's official web portal to all federal, state and local government web resources and services.